www.pogodaiklimat.ru

Погода и климат >> Архив погоды >> Великобритания >> Чартерхолл


ПОГОДА в Чартерхолле

  • Прогноз погоды в Чартерхолле
  • Монитор погоды в Чартерхолле

АРХИВ ПОГОДЫ в Чартерхолле

Время (UTC), дата Ветер
(напр.,м/с)
 
Видим.   Явления Облачность Т
(С)
Тd
(С)
f
(%)
Тe
(С)
Тes
(С)
Комфортность P
(гПа)
Po
(гПа)
Тmin
(С)
Tmax
(С)
R
(мм)
R24
(мм)
S
(см)
19 15.08 ЮЗ 4 45 км н/о +14.9 +7.6 62 +14 +14 1011.1 997.8
20 15.08 ЮЗ 3 50 км н/о +12.6 +8.0 74 +11 +11 1011.3 997.8
21 15.08 ЮЗ 3 50 км н/о +12.6 +8.7 77 +11 +11 1011.3 997.9
22 15.08 ЮЗ 4 50 км н/о +11.3 +8.6 83 +9 +9 1011.4 997.9
23 15.08 ЮЗ 3 50 км н/о +11.0 +9.1 88 +9 +9 1010.9 997.4
00 16.08 ЮЗ 1 45 км н/о +10.5 +9.2 92 +10 +10 1010.2 996.6
01 16.08 ЮЗ 3 40 км н/о +12.3 +11.0 92 +11 +11 1009.7 996.2
02 16.08 ЮЗ 4 50 км в посл. час дождь н/о +12.2 +10.9 92 +10 +10 1009.1 995.7
03 16.08 ЮЗ 3 50 км н/о +12.0 +10.5 91 +11 +11 1008.3 994.9
04 16.08 ЮЗ 4 50 км н/о +12.6 +11.4 92 +11 +11 1006.9 993.6
05 16.08 ЮЗ 3 45 км н/о +13.5 +11.8 89 +12 +12 1006.1 992.8
06 16.08 Ю 4 21 км слаб. ливневой дождь н/о +13.8 +11.9 88 +12 +12 1005.3 992.0 +10.3 0.0
07 16.08 Ю 5 45 км в посл. час дождь н/о +13.6 +12.0 90 +12 +12 1004.4 991.1
08 16.08 Ю 5 40 км в посл. час дождь н/о +14.0 +12.4 90 +12 +12 1003.5 990.2
09 16.08 Ю 7 50 км н/о +14.9 +12.4 85 +13 +13 1002.3 989.1
10 16.08 Ю 7 40 км слаб. ливневой дождь н/о +14.5 +12.8 90 +12 +12 1001.3 988.1
11 16.08 Ю 6 23 км дождь н/о +14.4 +12.9 91 +13 +13 1000.3 987.1
12 16.08 Ю 8 21 км в посл. час дождь н/о +16.5 +14.1 86 +15 +15 998.8 985.7 1
13 16.08 Ю 9
{15}
50 км в посл. час дождь н/о +17.1 +13.5 79 +16 +16 998.1 985.1
14 16.08 ЮЗ 11
{14}
50 км н/о +18.5 +14.1 76 +18 +18 997.5 984.5
15 16.08 ЮЗ 9
{16}
50 км н/о +17.9 +14.6 81 +17 +17 996.7 983.7
16 16.08 Ю 8
{14}
35 км н/о +17.0 +14.4 85 +16 +16 996.2 983.2
17 16.08 Ю 8 45 км н/о +18.7 +14.9 79 +19 +19 995.6 982.6
18 16.08 Ю 7 50 км н/о +18.0 +14.4 79 +17 +17 994.9 981.9 +20.1 1
19 16.08 Ю 3 50 км н/о +16.7 +14.1 85 +16 +16 994.2 981.2
20 16.08 Ю 3 50 км н/о +16.1 +14.3 89 +16 +16 994.0 981.0
21 16.08 Ю 1 50 км в посл. час дождь н/о +14.4 +13.0 91 +15 +15 993.4 980.3
22 16.08 ЮЗ 1 9000 м слаб. ливневой дождь н/о +15.2 +14.6 96 +16 +16 992.8 979.7
23 16.08 ЮЗ 4 50 км в посл. час дождь н/о +14.7 +14.2 97 +14 +14 992.8 979.7
00 17.08 ЮЗ 5 29 км н/о +13.6 +13.0 96 +12 +12 992.9 979.7 4
01 17.08 ЮЗ 4 17 км н/о +13.1 +12.5 96 +11 +11 992.9 979.8
02 17.08 ЮЗ 5 20 км н/о +12.6 +12.1 97 +10 +10 993.0 979.8
03 17.08 ЮЗ 4 30 км н/о +12.1 +11.4 95 +10 +10 992.9 979.7
04 17.08 ЮЗ 5 22 км н/о +11.7 +11.1 96 +9 +9 992.7 979.5
05 17.08 ЮЗ 4 9000 м ливневой дождь н/о +12.4 +11.9 97 +10 +10 993.0 979.8
06 17.08 ЮЗ 3 29 км в посл. час дождь н/о +12.4 +12.0 97 +11 +11 993.5 980.2 +11.5 5
07 17.08 ЮЗ 4 45 км н/о +13.5 +11.8 89 +12 +12 994.3 981.1
08 17.08 ЮЗ 5 25 км н/о +14.8 +12.7 87 +13 +13 994.7 981.6
09 17.08 ЮЗ 8 40 км н/о +15.2 +10.9 75 +13 +13 994.9 981.8
10 17.08 ЮЗ 9 35 км н/о +16.1 +10.2 68 +14 +14 995.1 982.0
11 17.08 ЮЗ 10
{14}
40 км н/о +18.2 +9.4 56 +17 +17 995.0 982.0
12 17.08 ЮЗ 11
{17}
50 км н/о +18.0 +9.0 56 +17 +17 995.3 982.4
13 17.08 ЮЗ 11
{15}
23 км н/о +19.1 +8.9 52 +19 +19 995.0 982.1
14 17.08 ЮЗ 10
{15}
45 км н/о +18.6 +8.6 52 +18 +18 995.5 982.5
15 17.08 ЮЗ 11-16
{16}
40 км н/о +18.3 +8.3 52 +17 +17 995.8 982.8
16 17.08 ЮЗ 10
{16}
50 км н/о +17.1 +8.1 55 +16 +16 995.9 982.9
17 17.08 ЮЗ 8
{15}
35 км н/о +16.4 +9.3 63 +15 +15 996.2 983.1
18 17.08 ЮЗ 4-9
{14}
35 км в посл. час дождь н/о +13.9 +11.8 87 +12 +12 996.2 983.1 +19.5 0.2
19 17.08 ЮЗ 8 50 км н/о +14.8 +10.5 75 +13 +13 996.2 983.1
20 17.08 ЮЗ 5 45 км в посл. час дождь н/о +13.5 +10.5 82 +12 +12 996.2 983.0
21 17.08 ЮЗ 5 50 км в посл. час дождь н/о +12.1 +10.2 88 +10 +10 996.5 983.2
22 17.08 Ю 3 29 км н/о +11.6 +10.4 92 +10 +10 996.2 982.9
23 17.08 Ю 3 24 км н/о +10.6 +9.9 95 +8 +8 995.9 982.6
00 18.08 ЮЗ 4 30 км н/о +11.6 +10.6 94 +9 +9 995.8 982.5 0.0
01 18.08 Ю 3 30 км н/о +10.6 +9.1 90 +9 +9 995.5 982.2
02 18.08 ЮЗ 4 40 км н/о +10.7 +9.8 94 +8 +8 995.1 981.8
03 18.08 ЮЗ 6 40 км н/о +11.5 +9.7 89 +8 +8 994.9 981.6
04 18.08 ЮЗ 5 35 км н/о +10.6 +9.1 90 +8 +8 994.5 981.2
05 18.08 Ю 5 40 км н/о +11.4 +9.8 90 +9 +9 994.1 980.9
06 18.08 Ю 6 40 км н/о +11.9 +10.2 89 +9 +9 993.8 980.6 +9.7 0.2
07 18.08 Ю 7 40 км в посл. час дождь н/о +12.8 +11.2 90 +10 +10 993.5 980.4
08 18.08 Ю 8 45 км н/о +13.9 +10.9 82 +11 +11 993.3 980.1
09 18.08 Ю 7 45 км н/о +14.6 +12.0 84 +12 +12 993.2 980.1
10 18.08 ЮЗ 10
{14}
45 км в посл. час дождь н/о +16.9 +11.6 71 +15 +15 993.2 980.2
11 18.08 ЮЗ 11
{17}
18 км н/о +15.5 +10.9 74 +13 +13 993.6 980.5
12 18.08 ЮЗ 10
{16}
50 км в посл. час дождь н/о +18.5 +11.3 63 +18 +18 993.4 980.4 0.0
13 18.08 ЮЗ 8-14
{16}
30 км морось с дождем н/о +14.7 +11.1 79 +12 +12 994.1 981.0
14 18.08 ЮЗ 10
{15}
35 км в посл. час дождь н/о +18.3 +10.1 59 +17 +17 994.1 981.2
15 18.08 ЮЗ 9
{15}
28 км н/о +16.4 +11.2 71 +15 +15 994.9 981.8
16 18.08 ЮЗ 7
{13}
45 км в посл. час дождь н/о +16.6 +10.7 68 +15 +15 995.3 982.3
17 18.08 ЮЗ 6 50 км н/о +16.1 +11.2 73 +15 +15 995.7 982.6
18 18.08 ЮЗ 8
{14}
40 км н/о +16.1 +8.4 60 +15 +15 996.2 983.1 +19.1 0.2
19 18.08 ЮЗ 5
{13}
40 км н/о +14.3 +7.8 65 +13 +13 996.8 983.6
20 18.08 ЮЗ 4 50 км н/о +12.7 +8.2 74 +11 +11 997.9 984.7
21 18.08 ЮЗ 4 50 км н/о +11.7 +8.9 83 +10 +10 998.6 985.2
22 18.08 ЮЗ 2 45 км н/о +11.4 +8.9 85 +11 +11 999.3 986.0
23 18.08 ЮЗ 4 45 км н/о +11.2 +9.4 89 +9 +9 999.5 986.1
00 19.08 ЮЗ 4 50 км н/о +11.9 +10.2 89 +10 +10 999.8 986.5
01 19.08 ЮЗ 5 45 км н/о +11.8 +9.5 86 +9 +9 1000.2 986.8
02 19.08 ЮЗ 5 50 км н/о +11.6 +10.0 90 +9 +9 1000.6 987.3
03 19.08 ЮЗ 5 40 км н/о +12.1 +10.6 91 +10 +10 1001.0 987.6
04 19.08 ЮЗ 4 50 км в посл. час дождь н/о +11.9 +10.8 93 +10 +10 1001.3 988.0
05 19.08 ЮЗ 5 50 км н/о +12.7 +10.9 89 +10 +10 1001.5 988.2
06 19.08 ЮЗ 4 50 км н/о +12.8 +9.9 83 +11 +11 1002.4 989.0 +10.9 0.0
07 19.08 ЮЗ 5 35 км н/о +13.2 +9.5 78 +11 +11 1003.2 989.9
09 19.08 З 7 50 км н/о +15.7 +8.9 64 +14 +14 1004.2 991.0
10 19.08 З 7 45 км н/о +15.9 +9.1 64 +14 +14 1004.7 991.5
11 19.08 ЮЗ 7 45 км н/о +17.4 +8.9 57 +17 +17 1005.3 992.2
12 19.08 З 6 45 км в посл. час дождь н/о +16.4 +10.6 69 +15 +15 1005.9 992.7
13 19.08 ЮЗ 7 40 км н/о +18.3 +9.5 56 +18 +18 1006.3 993.2
14 19.08 ЮЗ 8
{13}
30 км в посл. час дождь н/о +18.1 +10.4 61 +17 +17 1006.6 993.5
15 19.08 ЮЗ 7
{13}
40 км в посл. час дождь н/о +17.8 +10.3 61 +17 +17 1007.1 994.0
16 19.08 ЮЗ 7 50 км н/о +16.9 +10.5 66 +16 +16 1007.5 994.3
17 19.08 ЮЗ 7 50 км н/о +16.6 +9.0 61 +15 +15 1007.8 994.6
18 19.08 ЮЗ 5 50 км н/о +15.2 +8.6 65 +14 +14 1008.3 995.0
19 19.08 ЮЗ 5 50 км н/о +13.8 +9.1 73 +12 +12 1008.8 995.5
20 19.08 ЮЗ 3 50 км н/о +11.6 +8.0 79 +10 +10 1009.5 996.1
21 19.08 ЮЗ 3 50 км н/о +10.6 +7.8 83 +9 +9 1010.3 996.7
22 19.08 ЮЗ 4 50 км н/о +10.8 +9.0 89 +8 +8 1010.6 997.1
23 19.08 ЮЗ 4 50 км н/о +11.0 +9.6 91 +8 +8 1011.0 997.5
00 20.08 ЮЗ 4 50 км в посл. час дождь н/о +11.3 +9.5 89 +9 +9 1011.2 997.7 0.0
01 20.08 ЮЗ 3 50 км н/о +10.8 +9.5 92 +9 +9 1011.7 998.2
02 20.08 ЮЗ 2 50 км н/о +10.1 +8.5 90 +9 +9 1012.2 998.7
03 20.08 З 3 45 км н/о +10.5 +9.1 91 +8 +8 1012.8 999.3
04 20.08 З 3 45 км н/о +10.9 +9.3 90 +9 +9 1013.3 999.8
05 20.08 ЮЗ 1 50 км н/о +10.9 +9.4 90 +10 +10 1014.0 1000.4
06 20.08 З 2 50 км н/о +11.3 +10.0 92 +10 +10 1014.6 1001.0 +10.0 0.0
07 20.08 ЮЗ 2 45 км н/о +12.4 +10.3 87 +11 +11 1015.2 1001.7
08 20.08 З 3 50 км н/о +13.5 +10.0 79 +12 +12 1015.9 1002.4
09 20.08 З 4 35 км н/о +16.1 +10.6 70 +16 +16 1016.2 1002.8
10 20.08 З 4 45 км н/о +15.5 +9.4 67 +15 +15 1016.7 1003.3
11 20.08 СЗ 4 24 км н/о +16.4 +8.8 61 +16 +16 1017.2 1003.8
12 20.08 З 3 50 км н/о +16.6 +9.5 63 +17 +17 1017.5 1004.2
13 20.08 З 2 50 км н/о +16.9 +9.7 63 +17 +17 1017.8 1004.5
14 20.08 З 5 35 км н/о +16.9 +10.0 64 +16 +16 1018.4 1005.0
15 20.08 Ю 2 30 км слаб. морось с дождем н/о +15.5 +12.4 82 +16 +16 1019.0 1005.6
16 20.08 ЮВ 2 30 км ливневой дождь н/о +13.9 +12.4 91 +14 +14 1019.2 1005.7
17 20.08 ЮВ 1 45 км в посл. час дождь н/о +15.5 +13.5 88 +16 +16 1019.4 1006.0
18 20.08 З 3 45 км н/о +15.2 +11.0 76 +14 +14 1019.9 1006.5 +19.1 5
19 20.08 З 3 30 км н/о +13.4 +9.2 76 +12 +12 1020.4 1006.9
20 20.08 ЮЗ 4 45 км н/о +11.6 +9.1 85 +10 +10 1021.2 1007.6
21 20.08 З 3 45 км н/о +10.5 +8.8 89 +9 +9 1021.4 1007.7
22 20.08 ЮЗ 3 28 км н/о +9.5 +8.4 93 +7 +7 1021.7 1008.0
23 20.08 ЮЗ 2 26 км н/о +9.1 +8.3 95 +7 +7 1021.7 1008.0
00 21.08 З 2 28 км н/о +9.0 +8.3 95 +8 +8 1021.9 1008.2
01 21.08 З 2 18 км н/о +8.5 +8.0 97 +6 +6 1021.8 1008.0
02 21.08 З 3 19 км н/о +9.7 +9.3 97 +8 +8 1021.8 1008.1
03 21.08 Ю 1 17 км н/о +10.1 +9.6 97 +9 +9 1021.4 1007.7
04 21.08 ЮЗ 3 25 км н/о +10.0 +9.3 95 +8 +8 1021.3 1007.6
05 21.08 З 3 19 км н/о +9.3 +8.6 95 +7 +7 1021.2 1007.5
06 21.08 З 2 22 км н/о +11.2 +10.8 97 +10 +10 1021.0 1007.4 +7.3
07 21.08 ЮЗ 3 21 км н/о +12.2 +11.6 96 +10 +10 1021.3 1007.7
08 21.08 ЮЗ 4 35 км н/о +14.5 +13.1 91 +13 +13 1021.1 1007.6
09 21.08 ЮЗ 5 35 км н/о +16.3 +12.7 79 +15 +15 1020.7 1007.3
10 21.08 ЮЗ 7 35 км н/о +17.5 +12.1 71 +17 +17 1020.1 1006.8
11 21.08 ЮЗ 10
{14}
40 км н/о +19.2 +10.9 59 +19 +19 1019.8 1006.6
12 21.08 ЮЗ 10
{15}
50 км н/о +18.3 +9.8 58 +17 +17 1019.6 1006.3
13 21.08 ЮЗ 9
{14}
50 км н/о +19.1 +10.0 56 +19 +19 1018.8 1005.6
14 21.08 ЮЗ 11
{15}
40 км н/о +18.6 +9.5 55 +18 +18 1018.4 1005.2
15 21.08 Ю 9
{15}
50 км н/о +17.6 +10.5 63 +16 +16 1018.1 1004.8
16 21.08 ЮЗ 9
{15}
40 км н/о +17.2 +10.9 66 +16 +16 1017.7 1004.4
17 21.08 ЮЗ 9
{15}
50 км н/о +16.6 +10.6 68 +15 +15 1016.9 1003.6
18 21.08 ЮЗ 9-14
{14}
45 км в посл. час дождь н/о +15.4 +11.1 76 +13 +13 1016.5 1003.2 +20.3 0.0
19 21.08 ЮЗ 10-17
{17}
40 км в посл. час дождь н/о +14.9 +10.5 75 +12 +12 1016.3 1002.9
20 21.08 ЮЗ 8
{13}
35 км слаб. морось с дождем н/о +13.0 +11.6 91 +10 +10 1015.9 1002.4
21 21.08 ЮЗ 8
{15}
50 км в посл. час дождь н/о +13.0 +11.8 92 +10 +10 1015.4 1001.9
22 21.08 Ю 5 12 км слаб. морось н/о +12.8 +12.1 96 +10 +10 1015.3 1001.9
23 21.08 Ю 5 6000 м в посл. час морось н/о +13.2 +12.6 96 +11 +11 1015.1 1001.7
00 22.08 Ю 2 27 км в посл. час дождь н/о +13.1 +12.6 97 +12 +12 1015.1 1001.7 1
01 22.08 З 1 20 км н/о +12.5 +12.0 97 +13 +13 1015.0 1001.5
02 22.08 ЮЗ 2 40 км н/о +12.0 +11.5 97 +11 +11 1015.0 1001.5
03 22.08 ЮЗ 2 30 км н/о +11.9 +11.4 97 +11 +11 1015.2 1001.7
04 22.08 ЮЗ 3 35 км н/о +11.8 +11.3 97 +10 +10 1015.0 1001.5
05 22.08 ЮЗ 3 27 км н/о +11.2 +10.5 95 +9 +9 1015.1 1001.5
06 22.08 ЮЗ 2 30 км н/о +10.2 +9.6 96 +9 +9 1015.1 1001.5 +10.2 1
07 22.08 ЮЗ 3 30 км н/о +13.2 +12.6 96 +12 +12 1015.2 1001.8
08 22.08 ЮЗ 4 40 км н/о +14.4 +12.5 88 +13 +13 1015.1 1001.7
09 22.08 ЮЗ 6 50 км н/о +16.2 +12.6 79 +15 +15 1014.9 1001.6
10 22.08 ЮЗ 8 35 км н/о +18.7 +11.7 64 +19 +19 1014.8 1001.6
11 22.08 ЮЗ 9
{14}
40 км н/о +19.1 +10.3 57 +19 +19 1014.5 1001.3
12 22.08 ЮЗ 10
{13}
45 км н/о +18.2 +10.8 62 +17 +17 1014.6 1001.3
13 22.08 ЮЗ 10
{15}
50 км н/о +19.8 +12.5 63 +21 +21 комфорт 1014.2 1001.1
14 22.08 ЮЗ 8
{14}
50 км н/о +16.7 +12.7 77 +15 +15 1014.5 1001.2
15 22.08 ЮЗ 9
{15}
50 км н/о +17.4 +13.8 79 +16 +16 1014.2 1000.9
17 22.08 ЮЗ 8
{13}
45 км н/о +16.6 +14.2 86 +15 +15 1013.7 1000.4
18 22.08 ЮЗ 8 45 км н/о +16.6 +14.7 89 +15 +15 1013.7 1000.5 +20.3
19 22.08 ЮЗ 7 7000 м в посл. час дождь н/о +16.1 +15.2 94 +15 +15 1013.7 1000.4
20 22.08 ЮЗ 8 11 км в посл. час дождь н/о +16.3 +15.4 94 +15 +15 1014.4 1001.1

 

Местоположение метеостанции Чартерхолл (Великобритания): широта 55.70 долгота -2.38 высота над уровнем моря 111 м.

В архиве по умолчанию представлена погода в Чартерхолле за последнюю неделю. Архивные данные за месяц целиком и за предыдущие месяцы, начиная с января 2011 года, Вы можете получить, выбрав интересующий диапазон дат из раскрывающегося списка и нажав кнопку "Ввод!".


*Определитесь, кто Вы:
робот инопланетянин человек

Внимание! Время в таблицах - всемирное. Для получения местного времени необходимо прибавить поправку, которая равна 0 ч.

Смотрите также архив погоды в соседних городах и на ближайших метеорологических станциях:

Погода в Лагере Redesdale (Великобритания) (47 км)
Погода в Боулмере (Великобритания) (58 км)
Погода в Эдинбурге (Великобритания) (66 км)
Погода в Эскдейлмьюире (Великобритания) (67 км)
Погода в Спадедэме (Великобритания) (73 км)
Погода в Альбермарле (Великобритания) (82 км)
Погода в Леучарсе (Великобритания) (84 км)
Погода в Друмалбине (Великобритания) (85 км)
Погода в Карлайле (Великобритания) (93 км)
Погода в Страталлане (Великобритания) (109 км)

Пояснения к столбцам:

Ветер - указаны скорость ветра в м/с - средняя за 10 мин, порывы в срок и между сроками (в фигурных скобках) и направление, откуда дует ветер: С - северный, СВ - северо-восточный, В - восточный, ЮВ - юго-восточный, Ю - южный, ЮЗ - юго-западный, З - западный, СЗ - северо-западный.
Видимость - горизонтальная дальность видимости в метрах или километрах. При видимости от 1 до 10 км при отсутствии осадков обычно наблюдается дымка, при ухудшении видимости до 1 км и менее - туман. В сухую погоду видимость может ухудшаться дымом, пылью или мглою.
Явления - указаны атмосферные явления, наблюдавшиеся в срок или в последний час перед сроком; фигурными скобками обозначены явления, наблюдавшиеся между сроками (за 1-3 часа до срока); квадратными скобками обозначены град или гололедные отложения с указанием их диаметра в мм.
Облачность - указаны через наклонную черту общая и нижняя облачность в баллах и высота нижней границы облаков в метрах; квадратными скобками обозначены формы облаков: Ci - перистые, Cs - перисто-слоистые, Cc - перисто-кучевые, Ac - высококучевые, As - высокослоистые, Sc - слоисто-кучевые, Ns - слоисто-дождевые, Cu - кучевые, Cb - кучево-дождевые. Подробнее классификацию облаков см. в Атласе облаков (PDF).
T - Температура воздуха - температура, измеренная на высоте 2 м над землей.
Td - Температура точки росы - температура, при понижении до которой содержащийся в воздухе водяной пар достигнет насыщения.
f - Относительная влажность воздуха - влажноcть воздуха, измеренная на высоте 2 м над землей.
Te - Эффективная температура - температура, которую ощущает одетый по сезону человек в тени. Характеристика душности погоды. При расчете учитывается влияние влажности воздуха и скорости ветра на теплоощущения человека.
Tes - Эффективная температура на солнце - температура, которую ощущает человек, с поправкой на солнечный нагрев. Характеристика знойности погоды. Зависит от высоты солнца над горизонтом, облачности и скорости ветра. Ночью, в пасмурную погоду, а также при ветре 12 м/с и более поправка равна нулю.
P - Атмосферное давление - приведенное к уровню моря атмосферное давление.
Po - Атмосферное давление - измеренное на уровне метеостанции атмосферное давление.
Tmin - Минимальная температура - минимум температуры воздуха на высоте 2 м над землей.
Tmax - Максимальная температура - максимум температуры воздуха на высоте 2 м над землей.
R - Количество осадков - Количество выпавших осадков за период времени, мм. При наведении курсора мыши на число - период времени, за который выпало указанное количество осадков.
R24 - Количество осадков - Количество выпавших осадков за 24 часа, мм.
S - Снежный покров - Высота снежного покрова, см. При наведении курсора мыши на число - состояние снежного покрова и степень покрытия местности в баллах.